Weather Roundup
Issued by NWS Springfield, MO

Home | Current Version | Previous Version | Text Only | Print | Product List | Glossary On
Versions: 1 2 3 4 5 6 7 8 9 10 11 12 13 14 15 16 17 18 19 20 21 22 23 24 25 26 27 28 29 30 31 32 33 34 35 36 37 38 39 40 41 42 43 44 45 46 47 48 49 50
000
NZUS99 KSGF 262057
HRRSGF

HOURLY WEATHER
NATIONAL WEATHER SERVICE SPRINGFIELD MO
400 PM CDT THU MAY 26 2016

......SGF CWA......

CITY           SKY/WX    TMP DP  RH WIND       PRES   REMARKS
SPRINGFIELD    MOSUNNY   87  70  56 S20       29.85F HX  92
JOPLIN         MOSUNNY   86  72  62 S17G24    29.80F HX  92
WEST PLAINS    MOSUNNY   83  70  64 S14       29.93S
ROLLA          SUNNY     82  69  64 SE10      29.88F
BRANSON        CLOUDY    82  72  69 S17G28    29.90F

......SURROUNDING SGF CWA......

CITY           SKY/WX    TMP DP  RH WIND       PRES   REMARKS
CHANUTE        CLOUDY    83  72  69 S21       29.76F
PARSONS        PTSUNNY   82  74  76 S14G25    29.78F
COFFEYVILLE    PTSUNNY   83  74  74 S17G25    29.76F
EMPORIA        TSTM      67  63  87 SE9       29.78R
ROGERS AR        N/A     81  72  74 SE15G22   29.87F
HARRISON AR    MOSUNNY   79  69  71 S18G25    29.90F

......KANSAS AND MISSOURI......

CITY           SKY/WX    TMP DP  RH WIND       PRES   REMARKS
KANSAS CTY INT TSTM      69  63  81 NE14      29.80R
SEDALIA        SUNNY     83  67  58 E9        29.83F
ST JOSEPH      TSTM      66  62  87 E38G49    29.81S FOG
ST LOUIS       PTSUNNY   81  66  60 S12       29.93F
WICHITA        CLOUDY    80  70  71 E7        29.73R
TOPEKA         TSTM      65  61  87 E7        29.79R
OLATHE         CLOUDY    79  71  76 SE10      29.78R

......TENNESSEE......

CITY           SKY/WX    TMP DP  RH WIND       PRES   REMARKS
MEMPHIS        NOT AVBL
NASHVILLE      PTSUNNY   89  61  38 S13       30.02S

......ARKANSAS.......

CITY           SKY/WX    TMP DP  RH WIND       PRES   REMARKS
FAYETTEVILLE   TSTM      75  72  90 S8        29.87F FOG
FT SMITH       CLOUDY    80  72  76 S14G20    29.86F
LITTLE ROCK    CLOUDY    82  73  74 S9        29.95S

......OKLAHOMA.......

CITY           SKY/WX    TMP DP  RH WIND       PRES   REMARKS
TULSA          PTSUNNY   83  74  74 S20G29    29.76F
PONCA CITY     MOSUNNY   88  69  53 S16G35    29.72S HX  92
MCALESTER      CLOUDY    80  71  74 SE8G22    29.87S
OKLAHOMA CITY  CLOUDY    83  69  62 S23G32    29.75F

......IOWA............

CITY           SKY/WX    TMP DP  RH WIND       PRES   REMARKS
DES MOINES     NOT AVBL
QUAD CITIES    CLOUDY    87  64  46 NW7       29.81F

......ILLINOIS........

CITY           SKY/WX    TMP DP  RH WIND       PRES   REMARKS
QUINCY         MOSUNNY   83  64  52 SE10      29.81F
CHICAGO        PTSUNNY   82  64  54 SW13G18   29.84F




USA.gov is the U.S. government's official web portal to all federal, state and local government web resources and services.